#timestamp,LO_Frequency,Hit,StdDev 
1649444415.9,286047001.1,N
1649444435.7,286046996.5,N
1649444455.5,286046999.1,N
1649444475.4,286046999.2,N
1649444495.2,286046996.5,N
1649444515.1,286046999.4,N
1649444516.0,286046999.4,N
1649444535.8,286046998.7,N
1649444555.6,286046999.3,N
1649444575.5,286046999.4,N
1649444595.3,286046996.9,N
1649444615.1,286046997.1,N
1649444635.9,286046995.3,N
1649444655.7,286046996.9,N
1649444675.6,286046998.3,N
1649444695.4,286046996.3,N
1649444715.2,286046995.4,N
1649444735.1,286047001.2,N
1649444736.0,286047001.2,N
1649444755.8,286046998.9,N
1649444775.6,286046999.0,N
1649444795.5,286046998.4,N
1649444815.3,286046997.2,N
1649444835.2,286046997.7,N
1649444855.9,286046999.4,N
1649444875.7,286046999.4,N
1649444895.6,286046998.2,N
1649444915.4,286046998.8,N
1649444935.2,286046998.1,N
1649444955.1,286047001.0,N
1649444956.0,286047001.0,N
1649444975.8,286046998.2,N
1649444995.7,286047001.2,N
1649445015.5,286047001.0,N
1649445035.3,286046999.1,N
1649445055.2,286046999.2,N
1649445075.0,286047000.8,N
1649445075.9,286047000.8,N
1649445095.8,286047002.5,N
1649445115.6,286047000.4,N
1649445135.4,286047000.7,N
1649445155.3,286046998.4,N
1649445175.1,286046997.6,N
1649445195.8,286046995.9,N
1649445215.7,286046999.6,N
1649445235.5,286046999.3,N
1649445255.4,286046999.3,N
1649445275.2,286046997.4,N
1649445295.0,286046998.5,N
1649445295.9,286046998.5,N
1649445315.8,286046998.1,N
1649445335.6,286046996.6,N
1649445355.5,286046999.3,N
1649445375.3,286046998.2,N
1649445395.1,286046998.1,N
1649445415.9,286046999.3,N
1649445435.7,286046998.4,N
1649445455.5,286046998.4,N
1649445475.4,286046999.8,N
1649445495.2,286047001.8,N
1649445515.1,286046998.2,N
1649445516.0,286046998.2,N
1649445535.8,286046997.0,N
1649445555.6,286046998.5,N
1649445575.5,286047000.9,N
1649445595.3,286046998.5,N
1649445615.1,286047001.2,N
1649445635.9,286046998.8,N
1649445655.7,286046999.2,N
1649445675.6,286046998.5,N
1649445695.4,286046999.5,N
1649445715.2,286047000.8,N
1649445735.1,286047000.3,N
1649445736.0,286047000.3,N
1649445755.8,286047002.3,N
1649445775.7,286047004.3,Y
1649445795.5,286047001.7,P
1649445815.3,286047003.7,N
1649445835.2,286047004.3,N
1649445855.0,286047001.5,N
1649445855.9,286047001.5,N
1649445875.7,286047004.0,N
1649445895.6,286047002.2,N
1649445915.4,286047002.4,N
1649445935.3,286047000.2,N
1649445955.1,286047002.7,N
1649445956.0,286047002.7,N
1649445975.8,286046998.4,N
1649445995.7,286047000.9,N
1649446015.5,286046999.2,N
1649446035.3,286046998.7,N
1649446055.2,286046998.1,N
1649446075.0,286047000.3,N
1649446075.9,286047000.3,N
1649446095.8,286047000.5,N
1649446115.6,286046999.8,N
1649446135.4,286047000.1,N
1649446155.3,286047000.9,N
1649446175.1,286046998.3,N
1649446195.8,286047002.1,N
1649446215.7,286047002.8,N
1649446235.5,286047000.3,N
1649446255.4,286047001.6,N
1649446275.2,286047000.1,N
1649446295.0,286046999.8,N
1649446295.9,286046999.8,N
1649446315.8,286046999.9,N
1649446335.6,286047000.6,N
1649446355.4,286047001.0,N
1649446375.3,286046998.9,N
1649446395.1,286046998.9,N
1649446415.9,286046998.4,N
1649446435.7,286046996.8,N
1649446455.5,286046999.1,N
1649446475.4,286047000.6,N
1649446495.2,286047001.9,N
1649446515.0,286047001.3,N
1649446516.0,286047001.3,N
1649446535.8,286047001.3,N
1649446555.6,286047002.0,N
1649446575.5,286047002.5,N
1649446595.3,286047001.6,N
1649446615.1,286047001.9,N
1649446635.9,286047002.0,N
1649446655.7,286047004.0,N
1649446675.6,286047001.8,N
1649446695.4,286047004.1,N
1649446715.2,286047004.3,N
1649446735.1,286047000.4,N
1649446736.0,286047000.4,N
1649446755.8,286046999.2,N
1649446775.7,286047000.5,N
1649446795.5,286047000.3,N
1649446815.3,286047001.0,N
1649446835.2,286047000.1,N
1649446855.0,286047004.0,N
1649446855.9,286047004.0,N
1649446875.8,286047001.7,N
1649446895.6,286047002.1,N
1649446915.4,286047002.2,N
1649446935.3,286047001.9,N
1649446955.1,286047001.6,N
1649446975.9,286047000.1,N
1649446995.7,286047000.2,N
1649447015.5,286047001.4,N
1649447035.4,286047001.3,N
1649447055.2,286046999.9,N
1649447075.0,286047002.7,N
1649447076.0,286047002.7,N
1649447095.8,286047001.5,N
1649447115.6,286047003.6,N
1649447135.5,286047004.2,N
1649447155.3,286046999.9,N
1649447175.2,286047000.0,N
1649447195.9,286047000.0,N
1649447215.7,286047000.5,N
1649447235.6,286046999.9,N
1649447255.4,286046999.9,N
1649447275.8,286046999.0,N
1649447295.6,286046998.7,N
1649447315.5,286046998.2,N
1649447335.3,286047000.4,N
1649447355.2,286046999.3,N
1649447375.9,286046999.1,N
1649447395.7,286046997.5,N
1649447415.6,286046995.7,N
1649447435.4,286046995.0,N
1649447455.3,286046998.4,N
1649447475.1,286047000.3,N
1649447476.0,286047000.3,N
1649447495.8,286046999.9,N
1649447515.7,286047000.2,N
1649447535.5,286046998.9,N
1649447555.4,286046999.4,N
1649447575.2,286046996.7,N
1649447595.0,286046999.4,N
1649447595.9,286046999.4,N
1649447615.8,286046999.1,N
1649447635.6,286046997.8,N
1649447655.4,286046999.1,N
1649447675.3,286046998.4,N
1649447695.1,286046998.7,N
1649447715.9,286046997.0,N
1649447735.7,286046998.8,N
1649447755.5,286046999.6,N
1649447775.4,286046998.5,N
1649447795.2,286047001.1,N
1649447815.0,286047002.2,N
1649447815.9,286047002.2,N
1649447835.8,286047001.4,N
1649447855.6,286047002.8,N
1649447875.5,286047003.8,N
1649447895.3,286047001.8,N
1649447915.1,286047001.7,N
1649447935.9,286047000.1,N
1649447955.7,286046998.5,N
1649447975.5,286046999.8,N
1649447995.4,286046999.6,N
